Tracking 25650 objects as of 16-May-2022
HD Live streaming from Space Station
objects crossing your sky now

COSMOS 2251 DEB

Track COSMOS 2251 DEB now!
10-day predictions


NORAD ID: 40794
Int'l Code: 1993-036BVX
Perigee: 726.8 km
Apogee: 782.0 km
Inclination: 74.0 °
Period: 99.8 minutes
Semi major axis: 7125 km
RCS: Unknown
Launch date: June 16, 1993
Source: Commonwealth of Independent States (former USSR) (CIS)
Launch site: PLESETSK MISSILE AND SPACE COMPLEX (PKMTR)

Note: This is SATELLITE DEBRIS
aabbcc
Your satellite tracking list
Your tracking list is empty




NASA's NSSDC Master Catalog

Two Line Element Set (TLE):
1 40794U 93036BVX 22135.68291737  .00006077  00000-0  17901-2 0  9991
2 40794  73.9919 107.5627 0038702 174.6891 359.9867 14.43402571428459
Source of the keplerian elements: AFSPC